Location: Aldenham
(51.6667°N, 0.3500°W)
Time: 19:59:10
(UTC+00:00)

Vanguard 2 Rocket - Pass Details

Date: 19 February 2026
Orbit: 553 x 3286 km, 32.9° (Epoch: 8 March)

Event Time Altitude Azimuth Distance (km) Brightness Sun altitude
Rises 12:25:59 0° 230° (SW) 7,256 12.1 27.1°
Reaches altitude 10° 12:31:46 10° 222° (SW) 6,161 12.1 27.1°
Maximum altitude 12:47:02 32° 169° (S) 3,907 11.9 26.8°
Drops below altitude 10° 12:58:11 10° 113° (ESE) 4,498 10.7 26.5°
Sets 13:01:36 0° 103° (ESE) 5,135 10.8 26.4°
